period_start,C,m1,H,J0,J1,J2,J3,J4,J5,JA,JB,JC,JD,JJ,JK,JN,#
2016-08-05 00:00:48,0.01,0.03,0.00,23.23,27.12,30.14,14.44,46.42,1014.81,2040.03,3484.29,3078.24,3506.09,600.48,594.92,11.00,0000 0000 0000 0000 000000
2016-08-05 00:05:49,0.00,0.03,0.00,23.34,27.19,30.19,14.50,46.42,1014.88,2040.00,3484.00,3077.99,3505.86,600.14,594.41,11.05,0000 0000 0000 0000 000000
2016-08-05 00:10:50,0.01,0.03,0.00,23.47,27.26,30.24,14.45,46.37,1015.06,2039.83,3483.48,3077.52,3505.07,600.11,594.37,11.10,0000 0000 0000 0000 000000
2016-08-05 00:15:51,-0.04,0.03,0.00,23.55,27.33,30.32,14.49,46.35,1015.10,2039.13,3483.00,3077.00,3504.61,600.04,594.24,11.15,0000 0000 0000 0000 000000
2016-08-05 00:20:52,0.03,0.03,0.00,23.61,27.40,30.37,14.40,46.33,1015.11,2039.01,3482.52,3076.60,3504.02,599.86,593.91,11.20,0000 0000 0000 0000 000000
2016-08-05 00:25:53,0.01,0.03,0.00,23.52,27.48,30.46,14.48,46.45,1015.12,2038.96,3482.00,3076.01,3503.57,600.18,594.36,11.25,0000 0000 0000 0000 000000
2016-08-05 00:30:55,-0.03,0.03,0.00,23.28,27.54,30.53,14.48,46.52,1015.12,2038.38,3481.22,3075.59,3503.00,600.10,594.72,11.30,0000 0000 0000 0000 000000
2016-08-05 00:35:56,0.01,0.03,0.00,23.46,27.60,30.57,14.49,46.41,1015.02,2038.01,3481.00,3075.02,3502.37,600.22,594.41,11.35,0000 0000 0000 0000 000000
2016-08-05 00:40:57,0.01,0.03,0.00,23.63,27.66,30.62,14.48,46.55,1014.96,2037.99,3480.70,3074.93,3502.00,600.09,593.97,11.40,0000 0000 0000 0000 000000
2016-08-05 00:45:58,0.03,0.03,0.00,23.67,27.73,30.66,14.40,46.48,1014.73,2037.92,3480.04,3074.18,3501.39,599.83,593.52,11.45,0000 0000 0000 0000 000000
2016-08-05 00:50:59,-0.05,0.03,0.00,23.24,27.79,30.75,14.46,46.58,1014.77,2037.36,3479.73,3073.96,3500.98,599.83,594.26,11.50,0000 0000 0000 0000 000000
2016-08-05 00:56:01,0.02,0.03,0.00,22.47,27.82,30.88,14.59,46.79,1014.99,2037.01,3479.05,3073.31,3500.28,600.09,596.22,11.55,0000 0000 0000 0000 000000
2016-08-05 01:01:02,0.00,0.03,0.00,22.11,27.85,31.10,14.59,46.80,1014.90,2037.00,3478.97,3073.03,3500.02,600.15,596.97,11.60,0000 0000 0000 0000 000000
2016-08-05 01:06:03,0.00,0.03,0.00,21.89,27.86,31.06,14.65,46.92,1014.80,2036.97,3478.65,3073.00,3499.99,599.89,597.09,11.65,0000 0000 0000 0000 000000
2016-08-05 01:11:04,-0.00,0.03,0.00,21.94,27.87,31.08,14.74,46.98,1014.71,2036.98,3478.55,3073.00,3499.99,600.38,597.44,11.70,0000 0000 0000 0000 000000
2016-08-05 01:16:05,0.00,0.03,0.00,22.74,27.88,31.22,14.54,46.79,1014.68,2036.96,3478.38,3073.00,3499.97,599.93,595.29,11.75,0000 0000 0000 0000 000000
2016-08-05 01:21:06,0.00,0.03,0.00,23.16,27.90,31.19,14.60,46.68,1014.67,2036.94,3478.10,3072.98,3499.79,600.39,594.91,11.80,0000 0000 0000 0000 000000
2016-08-05 01:26:07,-0.02,0.03,0.00,23.24,27.92,31.16,14.55,46.76,1014.67,2036.54,3478.01,3072.77,3499.11,599.98,594.33,11.85,0000 0000 0000 0000 000000
2016-08-05 01:31:08,-0.01,0.03,0.00,23.40,27.96,31.06,14.48,46.74,1014.69,2036.10,3477.98,3072.17,3499.00,600.14,594.22,11.90,0000 0000 0000 0000 000000
2016-08-05 01:36:10,0.00,0.03,0.00,23.56,27.98,31.00,14.44,46.71,1014.97,2036.01,3477.78,3072.01,3498.95,600.00,594.01,11.95,0000 0000 0000 0000 000000
2016-08-05 01:41:11,0.02,0.03,0.00,23.60,28.01,30.92,14.46,46.65,1015.07,2036.00,3477.26,3071.99,3498.36,600.04,593.95,12.00,0000 0000 0000 0000 000000
2016-08-05 01:46:12,0.01,0.03,0.00,23.56,28.04,30.94,14.53,46.42,1015.11,2035.99,3477.00,3071.83,3498.03,599.92,593.85,12.05,0000 0000 0000 0000 000000
2016-08-05 01:51:14,0.01,0.03,0.00,23.66,28.08,30.96,14.48,46.51,1015.04,2035.98,3476.98,3071.17,3497.95,600.27,594.07,12.11,0000 0000 0000 0000 000000
2016-08-05 01:56:15,0.01,0.03,0.00,23.73,28.11,30.97,14.50,46.50,1015.02,2035.89,3476.35,3071.01,3497.52,600.23,593.81,12.16,0000 0000 0000 0000 000000
2016-08-05 02:01:16,-0.04,0.03,0.00,23.75,28.15,30.99,14.50,46.63,1014.72,2035.48,3476.03,3071.00,3497.02,600.34,593.67,12.21,0000 0000 0000 0000 000000
2016-08-05 02:06:17,-0.02,0.03,0.00,23.81,28.18,31.02,14.49,46.59,1014.76,2035.06,3476.00,3070.93,3496.99,600.15,593.39,12.26,0000 0000 0000 0000 000000
2016-08-05 02:11:19,0.03,0.03,0.00,23.80,28.21,31.06,14.40,46.65,1014.87,2035.01,3475.69,3070.28,3496.65,600.00,593.40,12.31,0000 0000 0000 0000 000000
2016-08-05 02:16:20,0.01,0.03,0.00,23.85,28.25,31.09,14.47,46.63,1015.05,2035.00,3475.08,3070.01,3496.05,599.98,593.46,12.36,0000 0000 0000 0000 000000
2016-08-05 02:21:21,0.00,0.03,0.00,23.96,28.29,31.11,14.44,46.59,1015.13,2034.99,3474.99,3069.99,3496.00,600.06,593.33,12.41,0000 0000 0000 0000 000000
2016-08-05 02:26:22,0.00,0.03,0.00,24.07,28.33,31.12,14.46,46.44,1015.15,2034.90,3474.94,3069.80,3495.71,600.42,593.43,12.46,0000 0000 0000 0000 000000
2016-08-05 02:31:23,-0.03,0.03,0.00,24.14,28.36,31.14,14.43,46.38,1015.15,2034.31,3474.36,3069.09,3495.06,600.10,592.83,12.51,0000 0000 0000 0000 000000
2016-08-05 02:36:25,0.00,0.03,0.00,24.24,28.39,31.14,14.36,46.39,1015.16,2034.08,3474.01,3069.00,3495.00,599.82,592.58,12.56,0000 0000 0000 0000 000000
2016-08-05 02:41:26,0.00,0.03,0.00,24.26,28.43,31.16,14.37,46.48,1015.19,2034.01,3473.99,3069.00,3494.90,599.71,592.27,12.61,0000 0000 0000 0000 000000
2016-08-05 02:46:27,0.01,0.03,0.00,24.28,28.46,31.18,14.43,46.28,1015.16,2034.00,3473.87,3068.85,3494.19,600.05,592.64,12.66,0000 0000 0000 0000 000000
2016-08-05 02:51:28,0.02,0.03,0.00,24.34,28.48,31.20,14.41,46.40,1015.20,2034.00,3473.22,3068.27,3494.01,600.21,592.64,12.71,0000 0000 0000 0000 000000
2016-08-05 02:56:30,0.00,0.03,0.00,24.35,28.51,31.21,14.42,46.47,1015.32,2033.98,3473.02,3068.02,3493.99,600.19,592.71,12.76,0000 0000 0000 0000 000000
2016-08-05 03:01:31,0.00,0.03,0.00,24.31,28.53,31.24,14.43,46.38,1015.30,2033.99,3472.99,3068.00,3493.94,600.22,592.86,12.81,0000 0000 0000 0000 000000
2016-08-05 03:06:32,0.00,0.03,0.00,24.34,28.55,31.26,14.49,46.51,1015.36,2033.96,3472.93,3068.00,3493.47,600.29,592.90,12.86,0000 0000 0000 0000 000000
2016-08-05 03:11:34,-0.02,0.03,0.00,24.34,28.57,31.26,14.35,46.41,1015.33,2033.74,3472.55,3067.95,3493.05,600.27,592.84,12.91,0000 0000 0000 0000 000000
2016-08-05 03:16:35,-0.01,0.03,0.00,24.39,28.59,31.25,14.40,46.42,1015.27,2033.35,3472.08,3067.63,3493.00,600.02,592.49,12.96,0000 0000 0000 0000 000000
2016-08-05 03:21:36,-0.01,0.03,0.00,24.42,28.61,31.26,14.38,46.53,1015.23,2033.08,3472.00,3067.14,3492.97,599.95,592.33,13.01,0000 0000 0000 0000 000000
2016-08-05 03:26:38,0.00,0.03,0.00,24.44,28.62,31.27,14.39,46.55,1015.24,2033.01,3472.00,3067.02,3492.83,599.99,592.33,13.06,0000 0000 0000 0000 000000
2016-08-05 03:31:39,0.01,0.03,0.00,24.47,28.64,31.28,14.44,46.53,1015.21,2033.00,3471.90,3067.00,3492.33,599.96,592.22,13.11,0000 0000 0000 0000 000000
2016-08-05 03:36:40,0.00,0.03,0.00,24.51,28.65,31.29,14.45,46.52,1015.21,2033.00,3471.60,3067.00,3492.03,600.31,592.50,13.16,0000 0000 0000 0000 000000
2016-08-05 03:41:41,0.00,0.03,0.00,24.51,28.67,31.29,14.36,46.52,1015.17,2033.00,3471.31,3066.99,3492.01,599.90,592.09,13.21,0000 0000 0000 0000 000000
2016-08-05 03:46:43,0.00,0.03,0.00,24.54,28.68,31.30,14.37,46.40,1015.16,2033.00,3471.06,3066.88,3492.00,600.07,592.16,13.26,0000 0000 0000 0000 000000
2016-08-05 03:51:44,0.01,0.03,0.00,24.57,28.70,31.30,14.36,46.57,1015.16,2033.00,3471.00,3066.55,3491.99,599.94,591.99,13.31,0000 0000 0000 0000 000000
2016-08-05 03:56:45,0.01,0.03,0.00,24.57,28.71,31.30,14.45,46.54,1015.16,2033.00,3470.99,3066.13,3491.83,600.39,592.39,13.36,0000 0000 0000 0000 000000
2016-08-05 04:01:46,0.00,0.03,0.00,24.61,28.72,31.31,14.43,46.70,1015.17,2032.95,3470.89,3066.01,3491.21,600.27,592.13,13.41,0000 0000 0000 0000 000000
2016-08-05 04:06:48,0.01,0.03,0.00,24.66,28.75,31.32,14.33,46.52,1015.30,2032.96,3470.64,3066.00,3491.01,599.64,591.61,13.46,0000 0000 0000 0000 000000
2016-08-05 04:11:49,0.00,0.04,0.00,24.67,28.75,31.32,14.32,46.67,1015.46,2032.92,3470.19,3066.00,3491.00,599.79,591.83,13.51,0000 0000 0000 0000 000000
2016-08-05 04:16:50,0.03,0.04,0.00,24.67,28.77,31.33,14.45,46.48,1015.56,2032.97,3469.65,3065.69,3490.97,600.25,592.27,13.56,0000 0000 0000 0000 000000
2016-08-05 04:21:52,0.01,0.04,0.00,24.71,28.78,31.34,14.41,46.36,1015.55,2032.98,3469.27,3065.14,3490.64,599.90,591.85,13.61,0000 0000 0000 0000 000000
2016-08-05 04:26:53,0.01,0.04,0.00,24.73,28.80,31.35,14.38,46.20,1015.33,2032.97,3469.07,3065.05,3490.16,599.91,591.73,13.66,0000 0000 0000 0000 000000
2016-08-05 04:31:54,0.00,0.04,0.00,24.77,28.80,31.36,14.36,46.23,1015.29,2032.95,3469.03,3065.02,3490.08,599.87,591.58,13.71,0000 0000 0000 0000 000000
2016-08-05 04:36:55,-0.01,0.04,0.00,24.80,28.82,31.38,14.32,46.14,1015.27,2032.94,3469.00,3065.00,3490.01,599.76,591.45,13.76,0000 0000 0000 0000 000000
2016-08-05 04:41:57,0.00,0.04,0.00,24.84,28.82,31.41,14.36,46.25,1015.21,2032.85,3468.99,3065.00,3490.00,599.86,591.47,13.81,0000 0000 0000 0000 000000
2016-08-05 04:46:58,-0.07,0.03,0.00,24.87,28.83,31.41,14.30,46.38,1015.23,2032.15,3468.99,3065.00,3489.99,599.76,591.27,13.86,0000 0000 0000 0000 000000
2016-08-05 04:51:59,0.00,0.03,0.00,24.90,28.85,31.42,14.35,46.19,1015.23,2032.05,3468.98,3064.98,3489.94,600.25,591.69,13.91,0000 0000 0000 0000 000000
2016-08-05 04:57:01,0.00,0.03,0.00,24.94,28.85,31.43,14.34,46.14,1015.16,2032.00,3468.97,3064.98,3489.61,600.15,591.45,13.96,0000 0000 0000 0000 000000
2016-08-05 05:02:02,0.01,0.03,0.00,24.96,28.85,31.45,14.34,46.17,1015.16,2032.00,3468.96,3064.95,3489.34,600.15,591.53,14.01,0000 0000 0000 0000 000000
2016-08-05 05:07:03,0.01,0.03,0.00,24.99,28.87,31.46,14.32,46.20,1015.15,2032.00,3468.76,3064.79,3489.07,599.81,591.06,14.06,0000 0000 0000 0000 000000
2016-08-05 05:12:05,0.01,0.04,0.00,25.02,28.87,31.46,14.33,46.32,1015.15,2032.00,3468.41,3064.52,3489.02,600.05,591.11,14.11,0000 0000 0000 0000 000000
2016-08-05 05:17:06,-0.01,0.04,0.00,25.02,28.88,31.46,14.40,46.28,1015.15,2032.00,3468.71,3064.60,3489.01,600.20,591.40,14.16,0000 0000 0000 0000 000000
2016-08-05 05:22:08,0.02,0.04,0.00,25.02,28.90,31.47,14.35,46.13,1015.15,2032.00,3468.39,3064.36,3489.00,599.85,590.98,14.21,0000 0000 0000 0000 000000
2016-08-05 05:27:09,0.01,0.04,0.00,25.02,28.90,31.47,14.32,46.34,1015.16,2031.99,3468.05,3064.07,3489.00,600.05,591.18,14.26,0000 0000 0000 0000 000000
2016-08-05 05:32:10,-0.00,0.04,0.00,25.02,28.92,31.49,14.32,46.31,1015.17,2031.98,3468.01,3064.01,3488.98,599.69,590.79,14.31,0000 0000 0000 0000 000000
2016-08-05 05:37:11,0.00,0.04,0.00,25.02,28.92,31.48,14.39,46.36,1015.16,2031.99,3467.98,3064.00,3488.98,599.98,591.07,14.36,0000 0000 0000 0000 000000
2016-08-05 05:42:12,0.00,0.04,0.00,25.05,28.92,31.49,14.35,46.17,1015.15,2031.98,3467.91,3064.00,3488.88,600.04,590.97,14.42,0000 0000 0000 0000 000000
2016-08-05 05:47:14,0.00,0.04,0.00,25.05,28.93,31.51,14.39,46.19,1015.15,2031.98,3467.96,3064.00,3488.64,600.11,591.21,14.47,0000 0000 0000 0000 000000
2016-08-05 05:52:15,-0.00,0.04,0.00,25.05,28.95,31.50,14.37,46.38,1015.15,2031.92,3467.58,3063.99,3488.20,600.15,591.29,14.52,0000 0000 0000 0000 000000
2016-08-05 05:57:16,0.01,0.04,0.00,25.05,28.95,31.52,14.38,46.30,1015.16,2031.89,3467.24,3063.98,3488.07,600.07,591.14,14.57,0000 0000 0000 0000 000000
2016-08-05 06:02:17,-0.02,0.04,0.00,25.07,28.95,31.52,14.40,46.25,1015.16,2031.74,3467.03,3063.93,3488.02,600.44,591.47,14.62,0000 0000 0000 0000 000000
2016-08-05 06:07:18,-0.00,0.04,0.00,25.07,28.96,31.54,14.27,46.26,1015.16,2031.62,3467.00,3063.83,3488.00,599.57,590.62,14.67,0000 0000 0000 0000 000000
2016-08-05 06:12:19,0.02,0.04,0.00,25.08,28.97,31.55,14.39,46.25,1015.15,2031.58,3466.98,3063.42,3488.00,599.95,591.08,14.72,0000 0000 0000 0000 000000
2016-08-05 06:17:20,0.00,0.04,0.00,25.09,28.97,31.55,14.33,46.27,1015.15,2031.63,3466.98,3063.41,3488.00,600.19,591.17,14.77,0000 0000 0000 0000 000000
2016-08-05 06:22:22,-0.02,0.04,0.00,25.09,28.98,31.56,14.40,46.32,1015.15,2031.39,3466.91,3063.12,3487.97,599.99,590.91,14.82,0000 0000 0000 0000 000000
2016-08-05 06:27:23,-0.01,0.04,0.00,25.10,29.00,31.56,14.37,46.43,1015.15,2031.17,3466.80,3063.06,3487.91,600.04,591.07,14.87,0000 0000 0000 0000 000000
2016-08-05 06:32:24,0.02,0.04,0.00,25.12,29.00,31.58,14.27,46.27,1015.15,2031.14,3466.32,3063.02,3487.56,599.49,590.45,14.92,0000 0000 0000 0000 000000
2016-08-05 06:37:25,0.00,0.04,0.00,25.12,29.00,31.58,14.27,46.23,1015.15,2031.05,3466.08,3063.00,3487.15,600.07,590.98,14.97,0000 0000 0000 0000 000000
2016-08-05 06:42:26,0.00,0.04,0.00,25.14,29.00,31.60,14.38,46.38,1015.16,2031.02,3466.01,3063.00,3487.02,600.35,591.22,15.02,0000 0000 0000 0000 000000
2016-08-05 06:47:27,-0.00,0.04,0.00,25.14,29.02,31.60,14.32,46.13,1015.16,2031.01,3466.00,3063.00,3487.00,600.05,591.06,15.07,0000 0000 0000 0000 000000
2016-08-05 06:52:28,0.00,0.04,0.00,25.16,29.02,31.60,14.35,46.19,1015.18,2031.01,3466.00,3062.99,3487.00,600.22,591.09,15.12,0000 0000 0000 0000 000000
2016-08-05 06:57:30,0.01,0.04,0.00,25.17,29.02,31.60,14.29,46.27,1015.16,2031.04,3465.99,3062.99,3487.00,599.55,590.43,15.17,0000 0000 0000 0000 000000
2016-08-05 07:02:30,-0.00,0.04,0.00,25.19,29.02,31.60,14.32,46.24,1015.16,2031.03,3465.96,3062.99,3487.00,599.72,590.65,15.22,0000 0000 0000 0000 000000
2016-08-05 07:07:32,0.00,0.04,0.00,25.20,29.02,31.61,14.32,46.19,1015.15,2031.01,3465.71,3062.92,3486.98,600.03,590.89,15.27,0000 0000 0000 0000 000000
2016-08-05 07:12:33,0.01,0.04,0.00,25.21,29.03,31.62,14.32,46.29,1015.16,2031.01,3465.16,3062.71,3486.95,600.08,590.86,15.32,0000 0000 0000 0000 000000
2016-08-05 07:17:34,0.01,0.04,0.00,25.22,29.04,31.63,14.35,46.22,1015.15,2031.01,3465.02,3062.29,3486.73,600.09,590.85,15.37,0000 0000 0000 0000 000000
2016-08-05 07:22:36,0.01,0.04,0.00,25.22,29.05,31.65,14.31,46.23,1015.15,2031.02,3464.99,3062.09,3486.35,600.21,590.95,15.42,0000 0000 0000 0000 000000
2016-08-05 07:27:37,0.00,0.04,0.00,25.23,29.05,31.64,14.30,46.04,1015.16,2031.04,3464.99,3062.05,3486.14,600.08,590.85,15.47,0000 0000 0000 0000 000000
2016-08-05 07:32:38,0.00,0.04,0.00,25.25,29.05,31.64,14.28,46.18,1015.15,2031.04,3464.98,3062.01,3486.03,599.79,590.36,15.52,0000 0000 0000 0000 000000
2016-08-05 07:37:39,0.00,0.04,0.00,25.25,29.05,31.65,14.38,46.25,1015.15,2031.04,3464.97,3062.01,3486.01,600.25,590.87,15.57,0000 0000 0000 0000 000000
2016-08-05 07:42:41,-0.00,0.04,0.00,25.27,29.06,31.67,14.39,46.37,1015.15,2031.01,3464.98,3062.02,3486.01,600.06,590.79,15.62,0000 0000 0000 0000 000000
2016-08-05 07:47:42,0.00,0.04,0.00,25.27,29.07,31.65,14.30,46.28,1015.15,2031.00,3464.98,3062.02,3486.01,599.88,590.41,15.67,0000 0000 0000 0000 000000
2016-08-05 07:52:43,0.00,0.04,0.00,25.27,29.07,31.66,14.25,46.23,1015.16,2031.00,3464.94,3062.00,3486.00,600.02,590.70,15.72,0000 0000 0000 0000 000000
2016-08-05 07:57:44,-0.00,0.04,0.00,25.29,29.07,31.67,14.33,46.39,1015.15,2031.00,3464.82,3062.00,3486.00,600.15,590.79,15.77,0000 0000 0000 0000 000000
2016-08-05 08:02:46,0.01,0.04,0.00,25.30,29.07,31.67,14.29,46.39,1015.15,2031.00,3464.65,3062.00,3485.99,599.96,590.50,15.82,0000 0000 0000 0000 000000
2016-08-05 08:07:47,0.00,0.04,0.00,25.32,29.07,31.68,14.32,46.25,1015.15,2031.00,3464.16,3062.00,3485.98,600.15,590.63,15.87,0000 0000 0000 0000 000000
2016-08-05 08:12:49,0.00,0.04,0.00,25.32,29.08,31.68,14.38,46.32,1015.15,2031.00,3464.03,3062.00,3485.98,600.05,590.52,15.92,0000 0000 0000 0000 000000
2016-08-05 08:17:50,0.00,0.04,0.00,25.35,29.09,31.68,14.36,46.18,1015.15,2031.00,3463.99,3061.99,3485.93,600.14,590.58,15.97,0000 0000 0000 0000 000000
2016-08-05 08:22:51,0.05,0.04,0.00,25.37,29.10,31.71,14.30,46.13,1015.16,2031.00,3463.21,3061.20,3485.13,599.89,590.42,16.02,0000 0000 0000 0000 000000
2016-08-05 08:27:52,0.00,0.04,0.00,25.38,29.10,31.70,14.32,46.17,1015.16,2031.00,3463.01,3061.01,3484.98,600.37,590.61,16.07,0000 0000 0000 0000 000000
2016-08-05 08:32:53,0.00,0.04,0.00,25.40,29.10,31.70,14.30,46.15,1015.16,2031.01,3463.00,3061.00,3484.95,599.35,589.67,16.12,0000 0000 0000 0000 000000
2016-08-05 08:37:55,0.00,0.04,0.00,25.41,29.11,31.70,14.32,46.10,1015.17,2031.00,3463.00,3061.00,3484.90,600.10,590.52,16.17,0000 0000 0000 0000 000000
2016-08-05 08:42:56,0.00,0.04,0.00,25.43,29.12,31.71,14.36,46.23,1015.16,2031.00,3463.00,3061.00,3484.78,600.19,590.45,16.22,0000 0000 0000 0000 000000
2016-08-05 08:47:57,0.01,0.04,0.00,25.45,29.12,31.72,14.34,46.25,1015.17,2031.00,3463.00,3061.00,3484.40,600.35,590.64,16.27,0000 0000 0000 0000 000000
2016-08-05 08:52:58,0.00,0.04,0.00,25.47,29.13,31.74,14.27,46.38,1015.17,2030.99,3463.00,3060.99,3484.13,599.61,589.96,16.32,0000 0000 0000 0000 000000
2016-08-05 08:58:00,0.00,0.04,0.00,25.48,29.15,31.74,14.27,46.17,1015.17,2030.97,3462.97,3060.99,3484.03,599.66,589.86,16.37,0000 0000 0000 0000 000000
2016-08-05 09:03:01,0.01,0.04,0.00,25.51,29.15,31.73,14.39,46.15,1015.17,2030.99,3462.36,3060.97,3484.00,600.34,590.55,16.42,0000 0000 0000 0000 000000
2016-08-05 09:08:02,0.00,0.04,0.00,25.53,29.16,31.75,14.34,46.04,1015.18,2030.99,3462.01,3060.84,3484.00,600.14,590.30,16.47,0000 0000 0000 0000 000000
2016-08-05 09:13:04,0.01,0.04,0.00,25.55,29.17,31.76,14.26,46.17,1015.18,2030.99,3462.00,3060.47,3483.99,599.93,590.05,16.52,0000 0000 0000 0000 000000
2016-08-05 09:18:05,0.00,0.05,0.00,25.56,29.17,31.76,14.32,46.13,1015.23,2030.98,3461.97,3060.07,3483.88,599.87,589.99,16.57,0000 0000 0000 0000 000000
2016-08-05 09:23:06,0.00,0.05,0.00,25.58,29.19,31.80,14.25,46.28,1015.30,2030.97,3461.97,3060.00,3483.37,599.83,590.06,16.62,0000 0000 0000 0000 000000
2016-08-05 09:28:07,-0.02,0.05,0.00,25.60,29.20,31.80,14.31,46.17,1015.35,2030.71,3461.95,3060.00,3483.08,600.14,590.29,16.67,0000 0000 0000 0000 000000
2016-08-05 09:33:09,-0.02,0.04,0.00,25.61,29.20,31.79,14.31,46.07,1015.36,2030.54,3461.90,3060.00,3483.02,599.97,590.02,16.72,0000 0000 0000 0000 000000
2016-08-05 09:38:10,-0.00,0.04,0.00,25.61,29.21,31.81,14.34,46.21,1015.35,2030.36,3461.59,3060.00,3483.00,600.28,590.36,16.77,0000 0000 0000 0000 000000
2016-08-05 09:43:11,0.02,0.04,0.00,25.62,29.22,31.82,14.29,46.11,1015.23,2030.40,3461.07,3059.99,3483.00,599.98,589.99,16.82,0000 0000 0000 0000 000000
2016-08-05 09:48:12,0.01,0.05,0.00,25.62,29.22,31.83,14.32,46.07,1015.23,2030.59,3461.00,3059.97,3483.00,600.11,590.12,16.87,0000 0000 0000 0000 000000
2016-08-05 09:53:13,-0.00,0.05,0.00,25.65,29.22,31.85,14.33,46.07,1015.36,2030.61,3460.97,3059.88,3482.97,600.18,590.19,16.92,0000 0000 0000 0000 000000
2016-08-05 09:58:14,0.04,0.05,0.00,25.65,29.23,31.83,14.25,46.04,1015.26,2030.69,3460.54,3059.51,3482.77,600.00,589.97,16.97,0000 0000 0000 0000 000000
2016-08-05 10:03:15,0.03,0.05,0.00,25.65,29.25,31.83,14.28,46.05,1015.20,2030.81,3460.05,3059.09,3482.22,599.77,589.66,17.02,0000 0000 0000 0000 000000
2016-08-05 10:08:16,-0.01,0.05,0.00,25.67,29.25,31.84,14.31,46.23,1015.19,2030.83,3460.00,3059.02,3482.02,599.75,589.60,17.07,0000 0000 0000 0000 000000
2016-08-05 10:13:18,-0.00,0.05,0.00,25.69,29.25,31.86,14.27,46.19,1015.18,2030.74,3459.99,3059.00,3482.00,599.80,589.65,17.13,0000 0000 0000 0000 000000
2016-08-05 10:18:19,-0.01,0.05,0.00,25.70,29.25,31.88,14.28,46.07,1015.18,2030.59,3459.86,3059.00,3481.99,600.02,589.87,17.18,0000 0000 0000 0000 000000
2016-08-05 10:23:20,0.00,0.05,0.00,25.70,29.27,31.86,14.30,46.05,1015.17,2030.40,3459.33,3058.97,3481.93,600.23,590.12,17.23,0000 0000 0000 0000 000000
2016-08-05 10:28:22,-0.01,0.05,0.00,25.70,29.27,31.90,14.31,46.25,1015.18,2030.30,3459.19,3058.96,3481.75,599.97,589.83,17.28,0000 0000 0000 0000 000000
2016-08-05 10:33:23,-0.00,0.05,0.00,25.70,29.27,31.91,14.27,46.10,1015.18,2030.16,3459.02,3058.84,3481.22,599.84,589.69,17.33,0000 0000 0000 0000 000000
2016-08-05 10:38:24,0.01,0.05,0.00,25.70,29.27,31.93,14.29,46.17,1015.20,2030.11,3459.00,3058.45,3481.02,599.77,589.66,17.38,0000 0000 0000 0000 000000
2016-08-05 10:43:25,0.00,0.05,0.00,25.72,29.28,31.93,14.34,46.08,1015.18,2030.12,3458.99,3058.19,3481.00,600.02,589.87,17.43,0000 0000 0000 0000 000000
2016-08-05 10:48:27,-0.00,0.05,0.00,25.72,29.29,31.92,14.34,46.08,1015.20,2030.04,3458.85,3058.03,3481.00,600.48,590.21,17.48,0000 0000 0000 0000 000000
2016-08-05 10:53:28,0.01,0.05,0.00,25.73,29.30,31.92,14.28,45.88,1015.23,2030.05,3458.43,3058.01,3480.99,599.85,589.63,17.53,0000 0000 0000 0000 000000
2016-08-05 10:58:29,0.00,0.05,0.00,25.77,29.30,31.91,14.30,46.09,1015.41,2030.03,3458.04,3058.00,3480.94,600.26,589.97,17.58,0000 0000 0000 0000 000000
2016-08-05 11:03:31,0.01,0.05,0.00,25.82,29.30,31.89,14.31,46.34,1015.64,2030.03,3458.00,3058.00,3480.73,599.61,589.52,17.63,0000 0000 0000 0000 000000
2016-08-05 11:08:32,0.01,0.05,0.00,25.89,29.31,31.87,14.30,46.16,1015.64,2030.13,3457.99,3057.99,3480.52,600.12,589.82,17.68,0000 0000 0000 0000 000000
2016-08-05 11:13:33,0.01,0.05,0.00,25.96,29.32,31.88,14.30,46.10,1015.64,2030.07,3457.78,3057.96,3480.09,600.21,589.78,17.73,0000 0000 0000 0000 000000
2016-08-05 11:18:34,0.01,0.05,0.00,25.99,29.32,31.90,14.28,45.90,1015.59,2030.15,3457.63,3057.92,3480.02,600.35,589.72,17.78,0000 0000 0000 0000 000000
2016-08-05 11:23:35,0.01,0.05,0.00,26.04,29.34,31.91,14.27,45.94,1015.56,2030.03,3457.21,3057.63,3480.00,600.03,589.46,17.83,0000 0000 0000 0000 000000
2016-08-05 11:28:37,0.02,0.05,0.00,26.10,29.35,31.92,14.22,45.89,1015.63,2030.05,3457.00,3057.08,3479.98,599.87,589.17,17.88,0000 0000 0000 0000 000000
2016-08-05 11:33:38,0.01,0.05,0.00,26.16,29.36,31.95,14.35,46.04,1015.64,2030.02,3456.71,3057.00,3479.52,600.27,589.62,17.93,0000 0000 0000 0000 000000
2016-08-05 11:38:39,0.00,0.05,0.00,26.21,29.37,31.96,14.27,46.11,1015.61,2030.00,3456.27,3056.98,3479.03,600.07,589.10,17.98,0000 0000 0000 0000 000000
2016-08-05 11:43:41,0.00,0.05,0.00,26.25,29.39,31.98,14.32,45.81,1015.18,2030.00,3456.03,3056.98,3479.00,600.41,589.07,18.03,0000 0000 0000 0000 000000
2016-08-05 11:48:42,0.00,0.05,0.00,26.29,29.40,31.99,14.21,45.85,1015.22,2030.00,3456.01,3056.95,3479.00,599.85,588.48,18.08,0000 0000 0000 0000 000000
2016-08-05 11:53:43,0.00,0.05,0.00,26.30,29.41,32.02,14.23,45.84,1015.24,2030.00,3456.00,3056.93,3478.99,599.87,588.63,18.13,0000 0000 0000 0000 000000
2016-08-05 11:58:44,0.01,0.05,0.00,26.32,29.42,32.03,14.18,45.88,1015.29,2030.00,3456.00,3056.72,3478.98,599.70,588.43,18.18,0000 0000 0000 0000 000000
2016-08-05 12:03:45,0.01,0.05,0.00,26.31,29.44,32.04,14.23,45.93,1015.27,2030.00,3455.99,3056.34,3478.92,600.15,588.81,18.23,0000 0000 0000 0000 000000
2016-08-05 12:08:46,0.01,0.06,0.00,26.28,29.45,32.08,14.13,45.98,1015.20,2029.99,3455.93,3056.07,3478.45,599.48,588.23,18.28,0000 0000 0000 0000 000000
2016-08-05 12:13:48,0.00,0.06,0.00,26.23,29.46,32.10,14.27,46.00,1015.17,2029.98,3455.62,3056.00,3478.07,600.06,588.80,18.33,0000 0000 0000 0000 000000
2016-08-05 12:18:49,0.01,0.06,0.00,26.17,29.47,32.10,14.30,45.94,1015.16,2029.98,3455.10,3056.00,3478.01,600.10,588.99,18.38,0000 0000 0000 0000 000000
2016-08-05 12:23:51,0.00,0.06,0.00,26.13,29.47,32.14,14.23,45.93,1015.16,2029.98,3455.00,3056.00,3478.00,599.90,588.87,18.43,0000 0000 0000 0000 000000
2016-08-05 12:28:52,-0.00,0.06,0.00,26.09,29.49,32.19,14.30,45.88,1015.17,2029.96,3455.00,3056.00,3477.99,599.93,588.92,18.48,0000 0000 0000 0000 000000
2016-08-05 12:33:53,-0.01,0.06,0.00,26.07,29.50,32.18,14.15,45.87,1015.16,2029.90,3455.00,3055.99,3477.98,599.94,589.11,18.53,0000 0000 0000 0000 000000
2016-08-05 12:38:54,-0.02,0.06,0.00,26.05,29.50,32.17,14.20,45.92,1015.16,2029.65,3454.99,3055.98,3477.91,600.07,589.22,18.58,0000 0000 0000 0000 000000
2016-08-05 12:43:56,-0.02,0.05,0.00,26.05,29.51,32.18,14.32,46.07,1015.15,2029.34,3454.99,3055.88,3477.63,600.16,589.19,18.63,0000 0000 0000 0000 000000
2016-08-05 12:48:57,0.01,0.05,0.00,26.05,29.52,32.18,14.27,45.97,1015.15,2029.13,3454.82,3055.56,3477.20,600.25,589.35,18.68,0000 0000 0000 0000 000000
2016-08-05 12:53:58,0.01,0.05,0.00,26.04,29.52,32.22,14.25,46.04,1015.15,2029.08,3454.33,3055.23,3477.03,600.15,589.28,18.73,0000 0000 0000 0000 000000